Location: San Antonio
(29.4240°N, 98.4930°W)
Time: 08:17:08
(UTC-05:00)

SR - All Passes

Search period start: 14 July 2024 00:00
Search period end: 24 July 2024 00:00
Orbit: 580 x 857 km, 66.7° (Epoch: 13 July)

Date Brightness Start Highest point End Pass type
(mag) Time Alt. Az. Time Alt. Az. Time Alt. Az.
14 Jul - 04:42:40 10° SSE 04:46:22 21° ESE 04:49:52 10° ENE visible
14 Jul - 06:23:49 10° WSW 06:28:00 29° WNW 06:31:56 10° N daylight
14 Jul - 15:08:39 10° N 15:12:42 38° ENE 15:16:57 10° SE daylight
14 Jul - 16:51:54 10° WNW 16:54:11 14° WSW 16:56:32 10° SW daylight
15 Jul - 05:30:37 10° SSW 05:35:30 75° WNW 05:40:03 10° NNE visible
15 Jul - 14:17:29 10° NNE 14:20:05 15° ENE 14:22:45 10° E daylight
15 Jul - 15:57:53 10° NW 16:01:55 37° WSW 16:06:12 10° S daylight
16 Jul - 04:38:31 10° S 04:43:07 41° ESE 04:47:24 10° NE visible
16 Jul - 06:22:08 10° W 06:24:58 16° WNW 06:27:44 10° NNW daylight
16 Jul - 15:05:11 10° NNW 15:09:33 78° ENE 15:14:11 10° SSE daylight
17 Jul - 03:47:56 10° SE 03:50:49 16° ESE 03:53:36 10° ENE visible
17 Jul - 05:27:52 10° SW 05:32:21 38° WNW 05:36:34 10° N visible
17 Jul - 14:13:16 10° N 14:17:03 28° ENE 14:21:00 10° ESE daylight
17 Jul - 15:55:30 10° WNW 15:58:38 19° WSW 16:01:54 10° SSW daylight
18 Jul - 04:35:01 10° SSW 04:39:53 81° ESE 04:44:25 10° NNE visible
18 Jul - 13:22:49 10° NE 13:24:21 12° NE 13:25:54 10° ENE daylight
18 Jul - 15:02:04 10° NW 15:06:19 51° WSW 15:10:51 10° S daylight
19 Jul - 03:43:16 10° S 03:47:31 30° ESE 03:51:30 10° NE visible
19 Jul - 05:25:44 10° WSW 05:29:15 20° WNW 05:32:37 10° N visible
19 Jul - 14:09:36 10° NNW 14:13:54 56° ENE 14:18:28 10° SE daylight
20 Jul - 02:53:44 10° SE 02:55:14 11° ESE 02:56:43 10° E visible
20 Jul - 04:32:00 10° SW 04:36:41 51° WNW 04:41:03 10° NNE visible
20 Jul - 13:17:56 10° N 13:21:20 22° ENE 13:24:52 10° ESE daylight
20 Jul - 14:59:21 10° NW 15:03:02 26° WSW 15:06:53 10° SSW daylight
21 Jul - 03:39:27 10° SSW 03:44:14 59° ESE 03:48:40 10° NNE visible
21 Jul - 05:25:03 10° WNW 05:26:15 11° NW 05:27:26 10° NW visible
21 Jul - 14:06:17 10° NNW 14:10:40 72° WSW 14:15:20 10° SSE daylight
22 Jul - 02:48:08 10° SSE 02:51:52 22° ESE 02:55:25 10° ENE visible
22 Jul - 04:29:31 10° WSW 04:33:31 26° WNW 04:37:18 10° N visible
22 Jul - 13:14:02 10° N 13:18:11 41° ENE 13:22:35 10° SE daylight
22 Jul - 14:57:31 10° WNW 14:59:39 13° WSW 15:01:52 10° SW daylight
23 Jul - 03:36:11 10° SSW 03:40:58 69° WNW 03:45:25 10° NNE visible
23 Jul - 12:22:42 10° NNE 12:25:33 17° ENE 12:28:29 10° E daylight
23 Jul - 14:03:19 10° NW 14:07:21 35° WSW 14:11:38 10° S daylight
